Location: Newark
(48.1500°N, 13.1167°E)
Time: 01:53:52
(UTC+00:00)

KAITUO 1B - Pass Details

Date: 04 December 2021
Orbit: 486 x 507 km, 97.4° (Epoch: 16 January)

Event Time Altitude Azimuth Distance (km) Brightness Sun altitude
Rises 17:04:36 0° 180° (S) 2,592 ? -17.5°
Reaches altitude 10° 17:06:44 10° 187° (S) 1,716 ? -17.9°
Maximum altitude 17:10:18 45° 261° (W) 699 ? -18.4°
Drops below altitude 10° 17:13:55 10° 335° (NNW) 1,739 ? -19.0°
Sets 17:16:05 0° 342° (NNW) 2,632 ? -19.4°
